Погода в Таразе

Поиск расширенной информации на нашем сайте:

Полезная информация:

Новости сайта



02.01.2020
Опубликован Долгосрочный прогноз погоды по городам России и ближнего зарубежья на январь 2020 года.
Карты: Прогноз на январь и февраль 2020 года, Сравнение прогнозируемой аномалии приземной температуры воздуха на январь 2020 года по разным моделям.




Погода в Таразе - сегодня

Время (UTC), дата Ветер
(°,м/с) 
Видим.   Явления Облачность Т
(°С)
Тd
(°С)
f(%) Тe
(°С)
Pmin
(гПа)
dP
(гПа)
Po
(мм)
O2
(г/м3)
Тmin Tmax R s Состояние
почвы
06 05.04.20 030 (СВ) 20000 м    10/0 средняя 
[Ac As]
+16.1 +8 59 +17  1019.4  0.1  709  268  +10.3         
09 05.04.20 020 (С) 20000 м    10/3 1000 м средняя 
[Sc diur, vesp|Ac lent]
+16.7 +6.8 52 +18  1018.5  -0.6  708  268           
12 05.04.20 330 (СЗ) 10 км  слаб. ливневой дождь  10/10 600 м кучево-дожд. 
[Cb cap]
+13.9 +12.2 89 +20  1019.6  0.4  708  269           
15 05.04.20 тихо ()   10 км  в посл. час ливневой дождь  10/10 600 м кучево-дожд. 
[Cb cap]
+12.3 +12.3 100 +18  1020.6  0.5  709  271    +18.5     
18 05.04.20 тихо ()   10 км  {ливн. осадки}  10/8 1000 м верхняя 
[Sc diur, vesp|Ci fib]
+11.5 +11.5 100 +16  1020.4  -0.4  708  272    +18.5     
21 05.04.20 тихо ()   10 км    10/10 1000 м 
[Sc diur, vesp]
+10.6 +10.6 100 +14  1019.7  -0.9  708  272           
00 06.04.20 тихо ()   10 км    10/8 1000 м верхняя 
[Sc diur, vesp|Ci fib]
+9.8 +9.8 100 +12  1019.6  -0.3  708  273           
03 06.04.20 тихо ()   20000 м    3/3 1000 м 
[Sc diur, vesp]
+11.1 +5 66 +11  1020.2  0.8  708  273           
06 06.04.20 тихо ()   20000 м    3/0 верхняя 
[Ci fib]
+15.6 +9.7 68 +18  1017.6  -1.2  707  268  +7.3         
09 06.04.20 280 (З) 20000 м    4/3 1000 м верхняя 
[Sc diur, vesp|Ci fib]
+19.6 +9 50 +22  1014.5  -1.9  706  264           
12 06.04.20 070 (В) 20000 м    4/3 1000 м верхняя 
[Sc diur, vesp|Ci fib]
+20.2 +7.6 44 +20  1013.6  -0.7  705  263           
15 06.04.20 тихо ()   10 км    6/6 1000 м верхняя 
[Sc diur, vesp|Ci fib]
+15.1 +11 76 +19  1014.6  -0.2  705  267    +21.1       
18 06.04.20 240 (ЮЗ) 10 км    6/0 верхняя 
[Ci fib]
+12.8 +10.5 86 +17  1014.7  -0.6  705  269    +21.1       
21 06.04.20 тихо ()   10 км    6/6 1000 м 
[Sc diur, vesp]
+10.5 +10.3 99 +13  1014.5  -1  708  273           
00 07.04.20 тихо ()   10 км    6/6 1000 м верхняя 
[Sc diur, vesp|Ci fib]
+10.4 +9.2 92 +12  1014.9  0.6  704  272           
03 07.04.20 тихо ()   20000 м    8/8 1000 м 
[Sc diur, vesp]
+16.4 +8.6 60 +17  1014.1  0.7  705  266           
06 07.04.20 270 (З) 20000 м    10/8 1000 м средняя 
[Sc diur, vesp|Ac lent]
+18.7 +10.2 58 +22  1013.8  0.4  705  264  +9.8         
09 07.04.20 290 (З) 10 км  слаб. ливневой дождь  10/10 600 м кучево-дожд. 
[Cb cap]
+16.3 +9.8 65 +18  1015  0.5  706  266           
12 07.04.20 290 (З) 20000 м  {ливн. осадки}  10/10 600 м кучево-дожд. 
[Cb cap]
+15.3 +9.5 68 +17  1016.1  0.7  706  268           
15 07.04.20 350 (С) 10 км    10/10 600 м кучево-дожд. 
[Cb cap]
+10.9 +9 88 +12  1020.2  2.8  708  273    +20.2  0.0     
18 07.04.20 350 (С) 10 км    10/10 600 м кучево-дожд. 
[Cb cap]
+7.9 +3.2 72 +6  1023.9  2.5  710  277    +20.2  0.0     
21 07.04.20 020 (С) 10 км    10/10 600 м кучево-дожд. 
[Cb cap]
+5.3 +3.9 91 +4  1023.9  -0.7  710  280           
00 08.04.20 030 (СВ) 10 км  слаб. ливневой дождь  10/10 600 м кучево-дожд. 
[Cb cap]
+2.1 +2.1 100 +1  1025.5  0.5  710  283           
03 08.04.20 040 (СВ) 20000 м  {ливн. осадки}  10/10 600 м кучево-дожд. 
[Cb cap]
+1.9 +1.9 100 +1  1025.2  -0.2  710  284         
06 08.04.20 010 (С) 10 км  слаб. ливневой дождь  10/10 600 м кучево-дожд. 
[Cb cap]
+2.7 +2.7 100 +2  1024.8  -0.2  710  283  +1.4       
Время (UTC), дата Ветер
(°,м/с) 
Видим.   Явления Облачность Т
(°С)
Тd
(°С)
f(%) Тe
(°С)
Pmin
(гПа)
dP
(гПа)
Po
(мм)
O2
(г/м3)
Тmin Tmax R s Состояние
почвы

Для получения пояснительной информации подведите курсор к названию столбца.

ПОГОДА в Таразе - архив

Всё, что Вы хотите узнать о погоде в Таразе - удобно и подробно!

Выберите нужную дату (начиная с 1 января 2019* года) и нажмите кнопку "Найти".
Будут отображены архивные сводки погоды по пункту Тараз, начиная с указанной даты.


Отображать данные в формате CSV (для использования в таблицах Excel)


Внимание! Наш архив погоды предназначен исключительно для личного некоммерческого использования в познавательных целях. Если Вам необходимы официальные справки о состоянии погоды (для производственных, юридических, коммерческих и т.п. целей), обращайтесь в органы Росгидромета.

*Примечание: данная дата относится к архиву по метеостанциям СССР (Россия, СНГ, Балтия).
Архив по метеостанциям Зарубежной Европы и Азии (кроме Китая) хранится 10 дней, по другим регионам земного шара (Китай, Африка, Америка, Австралия, Океания) - 1 день.

Тараз - район местоположения метеостанции


Название, широта, долгота, высота метеостанции:
Тараз (город) 42.9°ш. 71.4°д. 651 м над ур. моря [Казахстан]

Дополнительная информация

В oтличие oт бoльшинства пoгoдных сайтoв мы публикуем пoдрoбную метеoинфoрмацию в детальнoм прoфессиoнальнoм фoрмате.

Характеристики температуры и влажнoсти вoздуха измеряются на высoте 2 м в тени вдали oт зданий и деревьев.
Скoрoсть ветра измеряется на высoте 10 м (на урoвне рoста челoвека скoрoсть ветра ниже в 1.5-2 раза). Если метеoстанция нахoдится в гoрoде или в лесу, тo скoрoсть ветра занижена на 2-4 м/с пo сравнению с oткрытым местoм. Скoрoсть ветра над акватoриями крупных рек и oзёр, а также на вершинах хoлмoв на 2-5 м/с выше, чем в oбычных услoвиях.
Атмoсфернoе давление в разных тoчках местнoсти мoжет значительнo oтличаться oт давления на метеoстанции, в зависимoсти oт услoвий рельефа (при пoдъёме на 10 м давление пoнижается примернo на 1 мм рт.ст.).